NOAA NWS Hourly Roundups by Site

Regional Weather Roundup for State College, PA

To Select Another Site Choose from List

Select Site:  

000
ASUS41 KCTP 290410
RWRCTP

REGIONAL WEATHER ROUNDUP
NATIONAL WEATHER SERVICE STATE COLLEGE PA
1200 AM EDT SUN MAY 29 2022

Note: "fair" indicates few or no clouds below 12,000 feet with no
significant weather and/or obstructions to visibility.

* = STATION THAT DOES NOT REPORT PRECIPITATION /E.G. RAIN...SNOW...ETC/
    THUNDER OR FOG.

PAZ002>004-007>009-013>016-020>023-029>032-290500-
WESTERN PENNSYLVANIA

CITY           SKY/WX    TMP DP  RH WIND       PRES   REMARKS
ERIE           PTCLDY    55  50  83 SE3       29.97R
MEADVILLE      PTCLDY    53  47  79 CALM      29.99R
FRANKLIN       PTCLDY    52  51  97 CALM      30.01R
NEW CASTLE     FAIR      52  51  97 CALM      30.00R
BEAVER COUNTY  PTCLDY    60  48  64 CALM      30.00S
BUTLER         PTCLDY    55  53  93 CALM      30.00S
PITTSBURGH INT PTCLDY    57  54  89 CALM      29.99F
PITTSBURGH     PTCLDY    61  53  75 SE5       29.98F
INDIANA*       CLEAR     54  54 100 CALM      30.04F
LATROBE        PTCLDY    55  55 100 CALM      30.01S
WASHINGTON CO* PTCLDY    56  55  97 CALM      30.02F
$$

PAZ004>006-010>012-017>019-024>028-033>037-041-042-045-046-049>053-290500-
CENTRAL PENNSYLVANIA

CITY           SKY/WX    TMP DP  RH WIND       PRES   REMARKS
BRADFORD       PTCLDY    50  46  86 CALM      30.00S FOG
ST MARYS       CLOUDY    54  54 100 CALM      30.03
DUBOIS         PTCLDY    53  49  86 CALM      29.99F
CLEARFIELD     PTCLDY    56  54  93 SW3       30.00S
JOHNSTOWN      PTCLDY    55  50  83 SW5       30.02S
SOMERSET       FAIR      50  50 100 CALM      30.04S
ALTOONA        PTCLDY    58  52  80 W3        30.00S
STATE COLLEGE  PTCLDY    57  56  95 CALM      29.99R
REEDSVILLE     FAIR      61  59  94 CALM      29.97
WELLSBORO      FAIR      54  52  94 CALM      29.98S
WILLIAMSPORT   CLEAR     59  57  93 CALM      29.95R
SELINSGROVE    CLEAR     56  56 100 CALM      29.96R
FT INDIANTOWN  CLEAR     62  58  87 S3        29.94R
CAPITAL CITY   CLEAR     68  54  60 CALM      29.95R
HARRISBURG     CLEAR     68  55  63 W8        29.94R
YORK           CLEAR     61  56  83 CALM      29.96R
$$

PAZ038>040-043-044-047-048-054-055-060>062-067>071-290500-
EASTERN PENNSYLVANIA

CITY           SKY/WX    TMP DP  RH WIND       PRES   REMARKS
TOWANDA        CLEAR     57  57 100 SW3       29.99S
SCRANTON       CLEAR     58  54  86 E3        29.96R
MOUNT POCONO   CLEAR     54  52  93 NW8       29.96R
HAZLETON       FAIR      59  54  82 NW3       30.00S
LEHIGHTON      MOCLDY    55  54  94 CALM      29.96R FOG
ALLENTOWN      MOCLDY    64  56  75 NW3       29.94R
QN CITY/ALNTWN CLOUDY    63  61  94 CALM      29.96R
QUAKERTOWN*    CLOUDY    64  59  82 CALM      29.95R
PERKASIE*      MOCLDY    63  63 100 NW5       29.95S
DOYLESTOWN     PTCLDY    65  58  78 CALM      29.93R
READING        CLOUDY    68  62  81 CALM      29.93R
LANCASTER      CLOUDY    71  58  63 NE3       29.95R
COATESVILLE    CLOUDY    68  61  77 CALM      29.97R
WEST CHESTER   NOT AVBL
POTTSTOWN      CLOUDY    66  58  75 N5        29.96R
BLUE BELL      CLOUDY    66  61  82 N3        29.94R
NORTH PHILA    MOCLDY    67  64  90 N7        29.94R
PHILADELPHIA   MOCLDY    72  59  63 VRB6      29.93R
$$


 

View Past Reports for State College, PA.

Products Courtesy of NOAA-NWS
NWS Information Parsing Script by Ken True at Saratoga Weather - Script by SE Lincoln Weather.